Time,TemperatureF,DewpointF,PressureIn,WindDirection,WindDirectionDegrees,WindSpeedMPH,WindSpeedGustMPH,Humidity,HourlyPrecipIn,Conditions,Clouds,dailyrainin,SoftwareType,DateUTC
2013-10-01 00:00:00,63.9,58.6,30.03,SSW,194,0.0,4.0,83,0.00,,,0.00,VWS V14.01,2013-10-01 04:00:00,
2013-10-01 00:01:00,64.2,58.3,30.04,SSW,194,0.0,4.0,81,0.00,,,0.00,VWS V14.01,2013-10-01 04:01:00,
2013-10-01 00:06:00,64.3,58.3,30.04,SSW,194,0.0,4.0,81,0.00,,,0.00,VWS V14.01,2013-10-01 04:06:00,
2013-10-01 00:10:00,64.3,58.3,30.04,SSW,194,0.0,4.0,81,0.00,,,0.00,VWS V14.01,2013-10-01 04:10:00,
2013-10-01 00:11:00,64.5,58.5,30.04,SSW,194,0.0,4.0,81,0.00,,,0.00,VWS V14.01,2013-10-01 04:11:00,
2013-10-01 00:16:00,64.5,58.9,30.04,SSW,194,0.0,4.0,82,0.00,,,0.00,VWS V14.01,2013-10-01 04:16:00,
2013-10-01 00:20:00,64.5,58.9,30.04,SSW,194,0.0,4.0,82,0.00,,,0.00,VWS V14.01,2013-10-01 04:20:00,
2013-10-01 00:22:00,64.5,58.9,30.04,SSW,194,0.0,4.0,82,0.00,,,0.00,VWS V14.01,2013-10-01 04:22:00,
2013-10-01 00:27:00,64.3,58.7,30.04,SSW,194,0.0,4.0,82,0.00,,,0.00,VWS V14.01,2013-10-01 04:27:00,
2013-10-01 00:30:00,64.3,58.7,30.04,SSW,194,0.0,4.0,82,0.00,,,0.00,VWS V14.01,2013-10-01 04:30:00,
2013-10-01 00:32:00,64.3,58.7,30.04,SSW,194,0.0,4.0,82,0.00,,,0.00,VWS V14.01,2013-10-01 04:32:00,
2013-10-01 00:37:00,64.3,58.7,30.04,SSW,194,0.0,4.0,82,0.00,,,0.00,VWS V14.01,2013-10-01 04:37:00,
2013-10-01 00:40:00,64.3,58.7,30.04,SSW,194,0.0,4.0,82,0.00,,,0.00,VWS V14.01,2013-10-01 04:40:00,
2013-10-01 00:42:00,64.3,58.7,30.04,SSW,194,0.0,4.0,82,0.00,,,0.00,VWS V14.01,2013-10-01 04:42:00,
2013-10-01 00:47:00,64.3,58.7,30.04,SSW,194,0.0,4.0,82,0.00,,,0.00,VWS V14.01,2013-10-01 04:47:00,
2013-10-01 00:50:00,64.2,58.3,30.04,SSW,194,0.0,4.0,81,0.00,,,0.00,VWS V14.01,2013-10-01 04:50:00,
2013-10-01 00:52:00,64.2,58.6,30.04,SSW,194,0.0,4.0,82,0.00,,,0.00,VWS V14.01,2013-10-01 04:52:00,
2013-10-01 00:57:00,64.2,58.6,30.04,SSW,194,0.0,4.0,82,0.00,,,0.00,VWS V14.01,2013-10-01 04:57:00,
2013-10-01 01:00:00,64.2,58.6,30.04,SSW,194,0.0,4.0,82,0.00,,,0.00,VWS V14.01,2013-10-01 05:00:00,
2013-10-01 01:02:00,64.2,58.6,30.04,SSW,194,0.0,4.0,82,0.00,,,0.00,VWS V14.01,2013-10-01 05:02:00,
2013-10-01 01:07:00,64.0,58.7,30.04,SSW,194,0.0,4.0,83,0.00,,,0.00,VWS V14.01,2013-10-01 05:07:00,
2013-10-01 01:10:00,64.0,58.7,30.04,SSW,194,0.0,4.0,83,0.00,,,0.00,VWS V14.01,2013-10-01 05:10:00,
2013-10-01 01:12:00,63.9,58.6,30.04,SSW,194,0.0,4.0,83,0.00,,,0.00,VWS V14.01,2013-10-01 05:12:00,
2013-10-01 01:17:00,63.9,58.6,30.05,SSW,194,0.0,4.0,83,0.00,,,0.00,VWS V14.01,2013-10-01 05:17:00,
2013-10-01 01:20:00,63.9,58.6,30.05,SSW,194,0.0,4.0,83,0.00,,,0.00,VWS V14.01,2013-10-01 05:20:00,
2013-10-01 01:22:00,63.7,58.5,30.05,SSW,194,0.0,4.0,83,0.00,,,0.00,VWS V14.01,2013-10-01 05:22:00,
2013-10-01 01:27:00,63.7,58.8,30.05,SSW,194,0.0,4.0,84,0.00,,,0.00,VWS V14.01,2013-10-01 05:27:00,
2013-10-01 01:30:00,63.7,58.8,30.05,SSW,194,0.0,4.0,84,0.00,,,0.00,VWS V14.01,2013-10-01 05:30:00,
2013-10-01 01:32:00,63.5,58.6,30.05,SSW,194,0.0,4.0,84,0.00,,,0.00,VWS V14.01,2013-10-01 05:32:00,
2013-10-01 01:37:00,63.5,58.6,30.05,SSW,194,0.0,4.0,84,0.00,,,0.00,VWS V14.01,2013-10-01 05:37:00,
2013-10-01 01:40:00,63.4,58.8,30.05,SSW,194,0.0,4.0,85,0.00,,,0.00,VWS V14.01,2013-10-01 05:40:00,
2013-10-01 01:42:00,63.4,58.8,30.05,SSW,194,0.0,4.0,85,0.00,,,0.00,VWS V14.01,2013-10-01 05:42:00,
2013-10-01 01:47:00,63.2,58.6,30.05,SSW,194,0.0,4.0,85,0.00,,,0.00,VWS V14.01,2013-10-01 05:47:00,
2013-10-01 01:50:00,63.1,58.5,30.05,SSW,194,0.0,4.0,85,0.00,,,0.00,VWS V14.01,2013-10-01 05:50:00,
2013-10-01 01:52:00,63.1,58.5,30.05,SSW,194,0.0,4.0,85,0.00,,,0.00,VWS V14.01,2013-10-01 05:52:00,
2013-10-01 01:57:00,63.1,57.9,30.05,SSW,194,0.0,4.0,83,0.00,,,0.00,VWS V14.01,2013-10-01 05:57:00,
2013-10-01 02:00:00,63.1,57.9,30.04,SSW,194,0.0,4.0,83,0.00,,,0.00,VWS V14.01,2013-10-01 06:00:00,
2013-10-01 02:02:00,63.1,57.9,30.04,SSW,194,0.0,4.0,83,0.00,,,0.00,VWS V14.01,2013-10-01 06:02:00,
2013-10-01 02:07:00,63.2,57.6,30.04,SSW,194,0.0,4.0,82,0.00,,,0.00,VWS V14.01,2013-10-01 06:07:00,
2013-10-01 02:10:00,63.2,57.6,30.04,SSW,194,0.0,4.0,82,0.00,,,0.00,VWS V14.01,2013-10-01 06:10:00,
2013-10-01 02:12:00,63.1,57.5,30.04,SSW,194,0.0,4.0,82,0.00,,,0.00,VWS V14.01,2013-10-01 06:12:00,
2013-10-01 02:17:00,62.9,57.7,30.04,SSW,194,0.0,4.0,83,0.00,,,0.00,VWS V14.01,2013-10-01 06:17:00,
2013-10-01 02:20:00,62.7,57.5,30.04,SSW,194,0.0,4.0,83,0.00,,,0.00,VWS V14.01,2013-10-01 06:20:00,
2013-10-01 02:27:00,62.4,57.5,30.04,SSW,194,0.0,4.0,84,0.00,,,0.00,VWS V14.01,2013-10-01 06:27:00,
2013-10-01 02:30:00,63.7,58.8,30.05,SSW,194,0.0,4.0,84,0.00,,,0.00,VWS V14.01,2013-10-01 06:30:00,
2013-10-01 02:37:00,62.1,57.5,30.04,SSW,194,0.0,4.0,85,0.00,,,0.00,VWS V14.01,2013-10-01 06:37:00,
2013-10-01 02:40:00,62.0,57.5,30.04,SSW,194,0.0,4.0,85,0.00,,,0.00,VWS V14.01,2013-10-01 06:40:00,
2013-10-01 02:42:00,62.0,57.5,30.04,SSW,194,0.0,4.0,85,0.00,,,0.00,VWS V14.01,2013-10-01 06:42:00,
2013-10-01 02:50:00,61.6,57.0,30.03,SSW,194,0.0,4.0,85,0.00,,,0.00,VWS V14.01,2013-10-01 06:50:00,
2013-10-01 02:53:00,61.6,57.0,30.03,SSW,194,0.0,4.0,85,0.00,,,0.00,VWS V14.01,2013-10-01 06:53:00,
2013-10-01 03:00:00,63.1,57.9,30.04,SSW,194,0.0,4.0,83,0.00,,,0.00,VWS V14.01,2013-10-01 07:00:00,
2013-10-01 03:03:00,61.5,57.0,30.03,SSW,194,0.0,4.0,85,0.00,,,0.00,VWS V14.01,2013-10-01 07:03:00,
2013-10-01 03:08:00,61.5,57.0,30.03,SSW,194,0.0,4.0,85,0.00,,,0.00,VWS V14.01,2013-10-01 07:08:00,
2013-10-01 03:10:00,61.5,57.0,30.03,SSW,194,0.0,4.0,85,0.00,,,0.00,VWS V14.01,2013-10-01 07:10:00,
2013-10-01 03:18:00,61.3,56.8,30.03,SSW,194,0.0,4.0,85,0.00,,,0.00,VWS V14.01,2013-10-01 07:18:00,
2013-10-01 03:20:00,61.3,56.8,30.03,SSW,194,0.0,4.0,85,0.00,,,0.00,VWS V14.01,2013-10-01 07:20:00,
2013-10-01 03:27:00,62.7,57.8,30.04,SSW,194,0.0,4.0,84,0.00,,,0.00,VWS V14.01,2013-10-01 07:27:00,
2013-10-01 03:30:00,62.4,57.5,30.04,SSW,194,0.0,4.0,84,0.00,,,0.00,VWS V14.01,2013-10-01 07:30:00,
2013-10-01 03:35:00,62.4,57.5,30.04,SSW,194,0.0,4.0,84,0.00,,,0.00,VWS V14.01,2013-10-01 07:35:00,
2013-10-01 03:40:00,62.0,57.4,30.04,SSW,194,0.0,4.0,85,0.00,,,0.00,VWS V14.01,2013-10-01 07:40:00,
2013-10-01 03:50:00,61.6,57.0,30.03,SSW,194,0.0,4.0,85,0.00,,,0.00,VWS V14.01,2013-10-01 07:50:00,
2013-10-01 03:53:00,61.8,57.2,30.03,SSW,194,0.0,4.0,85,0.00,,,0.00,VWS V14.01,2013-10-01 07:53:00,
2013-10-01 04:00:00,61.5,57.0,30.03,SSW,194,0.0,4.0,85,0.00,,,0.00,VWS V14.01,2013-10-01 08:00:00,
2013-10-01 04:03:00,61.5,57.0,30.03,SSW,194,0.0,4.0,85,0.00,,,0.00,VWS V14.01,2013-10-01 08:03:00,
2013-10-01 04:10:00,61.5,57.0,30.03,SSW,194,0.0,4.0,85,0.00,,,0.00,VWS V14.01,2013-10-01 08:10:00,
2013-10-01 04:18:00,61.3,56.8,30.03,SSW,194,0.0,4.0,85,0.00,,,0.00,VWS V14.01,2013-10-01 08:18:00,
2013-10-01 04:20:00,61.3,56.8,30.03,SSW,194,0.0,4.0,85,0.00,,,0.00,VWS V14.01,2013-10-01 08:20:00,
2013-10-01 04:28:00,61.2,56.7,30.03,SSW,194,0.0,4.0,85,0.00,,,0.00,VWS V14.01,2013-10-01 08:28:00,
2013-10-01 04:30:00,61.0,56.5,30.04,SSW,194,0.0,4.0,85,0.00,,,0.00,VWS V14.01,2013-10-01 08:30:00,
2013-10-01 04:33:00,61.0,56.5,30.03,SSW,194,0.0,4.0,85,0.00,,,0.00,VWS V14.01,2013-10-01 08:33:00,
2013-10-01 04:38:00,60.9,56.4,30.04,SSW,194,0.0,4.0,85,0.00,,,0.00,VWS V14.01,2013-10-01 08:38:00,
2013-10-01 04:40:00,60.5,56.3,30.04,SSW,194,0.0,4.0,86,0.00,,,0.00,VWS V14.01,2013-10-01 08:40:00,
2013-10-01 04:43:00,60.7,56.5,30.04,SSW,194,0.0,4.0,86,0.00,,,0.00,VWS V14.01,2013-10-01 08:43:00,
2013-10-01 04:48:00,60.4,56.2,30.04,SSW,194,0.0,4.0,86,0.00,,,0.00,VWS V14.01,2013-10-01 08:48:00,
2013-10-01 04:50:00,60.2,56.3,30.04,SSW,194,0.0,4.0,87,0.00,,,0.00,VWS V14.01,2013-10-01 08:50:00,
2013-10-01 04:53:00,60.4,56.5,30.04,SSW,194,0.0,4.0,87,0.00,,,0.00,VWS V14.01,2013-10-01 08:53:00,
2013-10-01 04:58:00,60.2,56.3,30.04,SSW,194,0.0,4.0,87,0.00,,,0.00,VWS V14.01,2013-10-01 08:58:00,
2013-10-01 05:00:00,60.1,56.2,30.05,SSW,194,0.0,4.0,87,0.00,,,0.00,VWS V14.01,2013-10-01 09:00:00,
2013-10-01 05:03:00,60.1,56.2,30.04,SSW,194,0.0,4.0,87,0.00,,,0.00,VWS V14.01,2013-10-01 09:03:00,
2013-10-01 05:08:00,60.1,56.2,30.05,SSW,194,0.0,4.0,87,0.00,,,0.00,VWS V14.01,2013-10-01 09:08:00,
2013-10-01 05:10:00,59.9,56.3,30.05,SSW,194,0.0,4.0,88,0.00,,,0.00,VWS V14.01,2013-10-01 09:10:00,
2013-10-01 05:13:00,59.9,56.3,30.05,SSW,194,0.0,4.0,88,0.00,,,0.00,VWS V14.01,2013-10-01 09:13:00,
2013-10-01 05:18:00,59.8,56.2,30.05,SSW,194,0.0,4.0,88,0.00,,,0.00,VWS V14.01,2013-10-01 09:18:00,
2013-10-01 05:20:00,59.6,56.0,30.05,SSW,194,0.0,4.0,88,0.00,,,0.00,VWS V14.01,2013-10-01 09:20:00,
2013-10-01 05:23:00,59.6,56.0,30.05,SSW,194,0.0,4.0,88,0.00,,,0.00,VWS V14.01,2013-10-01 09:23:00,
2013-10-01 05:28:00,59.6,56.0,30.05,SSW,194,0.0,4.0,88,0.00,,,0.00,VWS V14.01,2013-10-01 09:28:00,
2013-10-01 05:30:00,59.5,56.0,30.05,SSW,194,0.0,4.0,88,0.00,,,0.00,VWS V14.01,2013-10-01 09:30:00,
2013-10-01 05:34:00,59.5,56.0,30.05,SSW,194,0.0,4.0,88,0.00,,,0.00,VWS V14.01,2013-10-01 09:34:00,
2013-10-01 05:39:00,59.3,56.1,30.05,SSW,194,0.0,4.0,89,0.00,,,0.00,VWS V14.01,2013-10-01 09:39:00,
2013-10-01 05:40:00,59.3,56.1,30.05,SSW,194,0.0,4.0,89,0.00,,,0.00,VWS V14.01,2013-10-01 09:40:00,
2013-10-01 05:44:00,59.3,56.1,30.05,SSW,194,0.0,4.0,89,0.00,,,0.00,VWS V14.01,2013-10-01 09:44:00,
2013-10-01 05:49:00,59.3,56.1,30.05,SSW,194,0.0,4.0,89,0.00,,,0.00,VWS V14.01,2013-10-01 09:49:00,
2013-10-01 05:50:00,59.2,56.0,30.06,SSW,194,0.0,4.0,89,0.00,,,0.00,VWS V14.01,2013-10-01 09:50:00,
2013-10-01 05:54:00,59.2,56.0,30.06,SSW,194,0.0,4.0,89,0.00,,,0.00,VWS V14.01,2013-10-01 09:54:00,
2013-10-01 05:59:00,59.2,56.0,30.06,SSW,194,0.0,4.0,89,0.00,,,0.00,VWS V14.01,2013-10-01 09:59:00,
2013-10-01 06:00:00,59.0,55.8,30.06,SSW,194,0.0,4.0,89,0.00,,,0.00,VWS V14.01,2013-10-01 10:00:00,
2013-10-01 06:04:00,59.0,55.8,30.06,SSW,194,0.0,4.0,89,0.00,,,0.00,VWS V14.01,2013-10-01 10:04:00,
2013-10-01 06:09:00,58.9,55.7,30.06,SSW,194,0.0,4.0,89,0.00,,,0.00,VWS V14.01,2013-10-01 10:09:00,
2013-10-01 06:10:00,58.6,55.4,30.06,SSW,194,0.0,4.0,89,0.00,,,0.00,VWS V14.01,2013-10-01 10:10:00,
2013-10-01 06:14:00,58.6,55.4,30.06,SSW,194,0.0,4.0,89,0.00,,,0.00,VWS V14.01,2013-10-01 10:14:00,
2013-10-01 06:20:00,58.4,55.5,30.07,SSW,194,0.0,4.0,90,0.00,,,0.00,VWS V14.01,2013-10-01 10:20:00,
2013-10-01 06:24:00,58.4,55.5,30.07,SSW,194,0.0,4.0,90,0.00,,,0.00,VWS V14.01,2013-10-01 10:24:00,
2013-10-01 06:29:00,58.4,55.5,30.07,SSW,194,0.0,4.0,90,0.00,,,0.00,VWS V14.01,2013-10-01 10:29:00,
2013-10-01 06:30:00,58.3,55.4,30.07,SSW,194,0.0,4.0,90,0.00,,,0.00,VWS V14.01,2013-10-01 10:30:00,
2013-10-01 06:34:00,58.3,55.4,30.07,SSW,194,0.0,4.0,90,0.00,,,0.00,VWS V14.01,2013-10-01 10:34:00,
2013-10-01 06:39:00,58.1,55.2,30.07,SSW,194,0.0,4.0,90,0.00,,,0.00,VWS V14.01,2013-10-01 10:39:00,
2013-10-01 06:40:00,58.0,55.1,30.07,SSW,194,0.0,4.0,90,0.00,,,0.00,VWS V14.01,2013-10-01 10:40:00,
2013-10-01 06:44:00,58.0,55.1,30.07,SSW,194,0.0,4.0,90,0.00,,,0.00,VWS V14.01,2013-10-01 10:44:00,
2013-10-01 06:49:00,57.8,55.2,30.08,SSW,194,0.0,4.0,91,0.00,,,0.00,VWS V14.01,2013-10-01 10:49:00,
2013-10-01 06:50:00,57.6,55.0,30.08,SSW,194,0.0,4.0,91,0.00,,,0.00,VWS V14.01,2013-10-01 10:50:00,
2013-10-01 06:55:00,57.6,55.0,30.08,SSW,194,0.0,4.0,91,0.00,,,0.00,VWS V14.01,2013-10-01 10:55:00,
2013-10-01 07:00:00,57.3,54.7,30.08,SSW,194,0.0,4.0,91,0.00,,,0.00,VWS V14.01,2013-10-01 11:00:00,
2013-10-01 07:05:00,57.3,54.7,30.08,SSW,194,0.0,4.0,91,0.00,,,0.00,VWS V14.01,2013-10-01 11:05:00,
2013-10-01 07:10:00,57.3,54.7,30.08,SSW,194,0.0,4.0,91,0.00,,,0.00,VWS V14.01,2013-10-01 11:10:00,
2013-10-01 07:15:00,57.3,55.0,30.08,SSW,194,0.0,4.0,92,0.00,,,0.00,VWS V14.01,2013-10-01 11:15:00,
2013-10-01 07:20:00,57.3,55.0,30.09,SSW,194,0.0,4.0,92,0.00,,,0.00,VWS V14.01,2013-10-01 11:20:00,
2013-10-01 07:25:00,57.5,55.2,30.09,SSW,194,0.0,4.0,92,0.00,,,0.00,VWS V14.01,2013-10-01 11:25:00,
2013-10-01 07:30:00,57.6,55.3,30.09,SSW,194,0.0,4.0,92,0.00,,,0.00,VWS V14.01,2013-10-01 11:30:00,
2013-10-01 07:35:00,57.6,55.3,30.09,SSW,194,0.0,4.0,92,0.00,,,0.00,VWS V14.01,2013-10-01 11:35:00,
2013-10-01 07:40:00,57.6,55.3,30.09,SSW,194,0.0,4.0,92,0.00,,,0.00,VWS V14.01,2013-10-01 11:40:00,
2013-10-01 07:45:00,57.8,55.5,30.09,SSW,194,0.0,4.0,92,0.00,,,0.00,VWS V14.01,2013-10-01 11:45:00,
2013-10-01 07:50:00,58.0,55.7,30.09,SSW,194,0.0,4.0,92,0.00,,,0.00,VWS V14.01,2013-10-01 11:50:00,
2013-10-01 07:55:00,58.1,55.8,30.09,SSW,194,0.0,4.0,92,0.00,,,0.00,VWS V14.01,2013-10-01 11:55:00,
2013-10-01 08:00:00,58.4,56.1,30.09,SSW,194,0.0,4.0,92,0.00,,,0.00,VWS V14.01,2013-10-01 12:00:00,
2013-10-01 08:05:00,58.6,56.3,30.09,SSW,194,0.0,4.0,92,0.00,,,0.00,VWS V14.01,2013-10-01 12:05:00,
2013-10-01 08:10:00,58.7,56.1,30.09,SSW,194,0.0,4.0,91,0.00,,,0.00,VWS V14.01,2013-10-01 12:10:00,
2013-10-01 08:15:00,59.0,56.4,30.09,SSW,194,0.0,4.0,91,0.00,,,0.00,VWS V14.01,2013-10-01 12:15:00,
2013-10-01 08:20:00,59.2,56.6,30.09,SSW,194,0.0,4.0,91,0.00,,,0.00,VWS V14.01,2013-10-01 12:20:00,
2013-10-01 08:25:00,59.3,56.7,30.09,SSW,194,0.0,4.0,91,0.00,,,0.00,VWS V14.01,2013-10-01 12:25:00,
2013-10-01 08:30:00,59.5,56.6,30.09,SSW,194,0.0,4.0,90,0.00,,,0.00,VWS V14.01,2013-10-01 12:30:00,
2013-10-01 08:35:00,59.5,56.6,30.10,SSW,194,0.0,4.0,90,0.00,,,0.00,VWS V14.01,2013-10-01 12:35:00,
2013-10-01 08:40:00,59.6,56.7,30.10,SSW,194,0.0,4.0,90,0.00,,,0.00,VWS V14.01,2013-10-01 12:40:00,
2013-10-01 08:45:00,59.8,56.9,30.10,SSW,194,0.0,4.0,90,0.00,,,0.00,VWS V14.01,2013-10-01 12:45:00,
2013-10-01 08:50:00,60.1,56.8,30.11,SSW,194,0.0,4.0,89,0.00,,,0.00,VWS V14.01,2013-10-01 12:50:00,
2013-10-01 08:51:00,59.9,57.0,30.11,SSW,194,0.0,4.0,90,0.00,,,0.00,VWS V14.01,2013-10-01 12:51:00,
2013-10-01 08:56:00,60.1,56.8,30.11,SSW,194,0.0,4.0,89,0.00,,,0.00,VWS V14.01,2013-10-01 12:56:00,
2013-10-01 09:00:00,60.9,57.0,30.10,SSW,194,0.0,4.0,87,0.00,,,0.00,VWS V14.01,2013-10-01 13:00:00,
2013-10-01 09:01:00,60.4,57.2,30.11,SSW,194,0.0,4.0,89,0.00,,,0.00,VWS V14.01,2013-10-01 13:01:00,
2013-10-01 09:06:00,60.9,57.0,30.10,SSW,194,0.0,4.0,87,0.00,,,0.00,VWS V14.01,2013-10-01 13:06:00,
2013-10-01 09:10:00,62.0,57.4,30.10,SSW,194,0.0,4.0,85,0.00,,,0.00,VWS V14.01,2013-10-01 13:10:00,
2013-10-01 09:11:00,61.5,57.6,30.10,SSW,194,0.0,4.0,87,0.00,,,0.00,VWS V14.01,2013-10-01 13:11:00,
2013-10-01 09:16:00,62.1,57.5,30.10,SSW,194,0.0,4.0,85,0.00,,,0.00,VWS V14.01,2013-10-01 13:16:00,
2013-10-01 09:20:00,63.1,57.5,30.11,SSW,194,0.0,4.0,82,0.00,,,0.00,VWS V14.01,2013-10-01 13:20:00,
2013-10-01 09:21:00,62.6,57.4,30.11,SSW,194,0.0,4.0,83,0.00,,,0.00,VWS V14.01,2013-10-01 13:21:00,
2013-10-01 09:26:00,63.2,57.6,30.11,SSW,194,0.0,4.0,82,0.00,,,0.00,VWS V14.01,2013-10-01 13:26:00,
2013-10-01 09:30:00,64.0,57.7,30.11,SSW,194,0.0,4.0,80,0.00,,,0.00,VWS V14.01,2013-10-01 13:30:00,
2013-10-01 09:31:00,63.7,57.8,30.11,SSW,194,0.0,4.0,81,0.00,,,0.00,VWS V14.01,2013-10-01 13:31:00,
2013-10-01 09:36:00,64.0,57.7,30.11,SSW,194,0.0,4.0,80,0.00,,,0.00,VWS V14.01,2013-10-01 13:36:00,
2013-10-01 09:40:00,64.5,57.8,30.11,SSW,194,0.0,4.0,79,0.00,,,0.00,VWS V14.01,2013-10-01 13:40:00,
2013-10-01 09:41:00,64.3,57.7,30.11,SSW,194,0.0,4.0,79,0.00,,,0.00,VWS V14.01,2013-10-01 13:41:00,
2013-10-01 09:46:00,64.7,58.0,30.11,SSW,194,0.0,4.0,79,0.00,,,0.00,VWS V14.01,2013-10-01 13:46:00,
2013-10-01 09:50:00,65.3,57.9,30.11,SSW,194,0.0,4.0,77,0.00,,,0.00,VWS V14.01,2013-10-01 13:50:00,
2013-10-01 09:55:00,65.3,57.9,30.11,SSW,194,0.0,4.0,77,0.00,,,0.00,VWS V14.01,2013-10-01 13:55:00,
2013-10-01 10:00:00,66.0,58.2,30.12,SSW,194,0.0,4.0,76,0.00,,,0.00,VWS V14.01,2013-10-01 14:00:00,
2013-10-01 10:01:00,65.6,58.2,30.11,SSW,194,0.0,4.0,77,0.00,,,0.00,VWS V14.01,2013-10-01 14:01:00,
2013-10-01 10:06:00,66.1,58.3,30.12,SSW,194,0.0,4.0,76,0.00,,,0.00,VWS V14.01,2013-10-01 14:06:00,
2013-10-01 10:10:00,66.6,58.1,30.12,SSW,194,0.0,4.0,74,0.00,,,0.00,VWS V14.01,2013-10-01 14:10:00,
2013-10-01 10:11:00,66.4,58.6,30.12,SSW,194,0.0,4.0,76,0.00,,,0.00,VWS V14.01,2013-10-01 14:11:00,
2013-10-01 10:17:00,66.8,58.3,30.12,SSW,194,0.0,4.0,74,0.00,,,0.00,VWS V14.01,2013-10-01 14:17:00,
2013-10-01 10:20:00,67.4,58.8,30.12,SSW,194,0.0,4.0,74,0.00,,,0.00,VWS V14.01,2013-10-01 14:20:00,
2013-10-01 10:25:00,67.4,58.8,30.12,SSW,194,0.0,4.0,74,0.00,,,0.00,VWS V14.01,2013-10-01 14:25:00,
2013-10-01 10:30:00,68.1,59.1,30.12,SSW,194,0.0,4.0,73,0.00,,,0.00,VWS V14.01,2013-10-01 14:30:00,
2013-10-01 10:32:00,67.9,58.5,30.12,SSW,194,0.0,4.0,72,0.00,,,0.00,VWS V14.01,2013-10-01 14:32:00,
2013-10-01 10:37:00,68.3,59.3,30.12,SSW,194,0.0,4.0,73,0.00,,,0.00,VWS V14.01,2013-10-01 14:37:00,
2013-10-01 10:40:00,69.1,58.9,30.12,ESE,122,0.0,4.0,70,0.00,,,0.00,VWS V14.01,2013-10-01 14:40:00,
2013-10-01 10:42:00,68.8,59.0,30.12,ESE,122,0.0,4.0,71,0.00,,,0.00,VWS V14.01,2013-10-01 14:42:00,
2013-10-01 10:47:00,69.3,58.7,30.12,SE,127,0.0,4.0,69,0.00,,,0.00,VWS V14.01,2013-10-01 14:47:00,
2013-10-01 10:50:00,69.9,58.9,30.12,SE,128,0.0,4.0,68,0.00,,,0.00,VWS V14.01,2013-10-01 14:50:00,
2013-10-01 10:52:00,69.8,58.8,30.12,SE,128,0.0,4.0,68,0.00,,,0.00,VWS V14.01,2013-10-01 14:52:00,
2013-10-01 10:57:00,70.1,59.1,30.12,SE,128,0.0,4.0,68,0.00,,,0.00,VWS V14.01,2013-10-01 14:57:00,
2013-10-01 11:00:00,71.3,58.9,30.12,SSW,209,0.0,4.0,65,0.00,,,0.00,VWS V14.01,2013-10-01 15:00:00,
2013-10-01 11:02:00,70.8,59.3,30.12,SE,128,0.0,4.0,67,0.00,,,0.00,VWS V14.01,2013-10-01 15:02:00,
2013-10-01 11:07:00,71.5,58.7,30.12,SSW,209,0.0,4.0,64,0.00,,,0.00,VWS V14.01,2013-10-01 15:07:00,
2013-10-01 11:10:00,71.8,59.4,30.12,SW,234,0.0,4.0,65,0.00,,,0.00,VWS V14.01,2013-10-01 15:10:00,
2013-10-01 11:12:00,72.0,59.2,30.12,SSW,209,0.0,4.0,64,0.00,,,0.00,VWS V14.01,2013-10-01 15:12:00,
2013-10-01 11:17:00,71.8,59.0,30.12,SW,234,0.0,4.0,64,0.00,,,0.00,VWS V14.01,2013-10-01 15:17:00,
2013-10-01 11:20:00,71.8,58.5,30.12,SW,232,0.0,4.0,63,0.00,,,0.00,VWS V14.01,2013-10-01 15:20:00,
2013-10-01 11:22:00,71.8,58.5,30.12,SW,232,0.0,4.0,63,0.00,,,0.00,VWS V14.01,2013-10-01 15:22:00,
2013-10-01 11:27:00,71.8,58.5,30.12,SW,232,0.0,4.0,63,0.00,,,0.00,VWS V14.01,2013-10-01 15:27:00,
2013-10-01 11:30:00,73.5,59.2,30.11,SSW,200,0.0,4.0,61,0.00,,,0.00,VWS V14.01,2013-10-01 15:30:00,
2013-10-01 11:32:00,72.0,59.2,30.12,SW,232,0.0,4.0,64,0.00,,,0.00,VWS V14.01,2013-10-01 15:32:00,
2013-10-01 11:37:00,72.3,59.5,30.12,South,188,0.0,4.0,64,0.00,,,0.00,VWS V14.01,2013-10-01 15:37:00,
2013-10-01 11:40:00,72.1,58.4,30.12,SSE,155,0.0,4.0,62,0.00,,,0.00,VWS V14.01,2013-10-01 15:40:00,
2013-10-01 11:42:00,72.1,58.4,30.12,SSW,202,0.0,4.0,62,0.00,,,0.00,VWS V14.01,2013-10-01 15:42:00,
2013-10-01 11:47:00,72.1,58.8,30.12,SSE,155,0.0,4.0,63,0.00,,,0.00,VWS V14.01,2013-10-01 15:47:00,
2013-10-01 11:50:00,72.5,58.8,30.11,SSW,192,0.0,4.0,62,0.00,,,0.00,VWS V14.01,2013-10-01 15:50:00,
2013-10-01 11:52:00,72.3,59.0,30.11,South,186,0.0,4.0,63,0.00,,,0.00,VWS V14.01,2013-10-01 15:52:00,
2013-10-01 11:53:00,76.0,59.2,30.10,SW,232,0.0,4.0,56,0.00,,,0.00,VWS V14.01,2013-10-01 15:53:00,
2013-10-01 11:57:00,72.7,58.9,30.11,SSW,192,0.0,4.0,62,0.00,,,0.00,VWS V14.01,2013-10-01 15:57:00,
2013-10-01 12:00:00,73.2,59.0,30.11,SSW,196,0.0,4.0,61,0.00,,,0.00,VWS V14.01,2013-10-01 16:00:00,
2013-10-01 12:02:00,73.0,58.8,30.11,SSW,192,0.0,4.0,61,0.00,,,0.00,VWS V14.01,2013-10-01 16:02:00,
2013-10-01 12:08:00,73.3,58.6,30.11,SW,221,2.0,4.0,60,0.00,,,0.00,VWS V14.01,2013-10-01 16:08:00,
2013-10-01 12:10:00,75.8,60.0,30.10,South,190,0.0,4.0,58,0.00,,,0.00,VWS V14.01,2013-10-01 16:10:00,
2013-10-01 12:13:00,76.3,60.0,30.10,SW,218,0.0,4.0,57,0.00,,,0.00,VWS V14.01,2013-10-01 16:13:00,
2013-10-01 12:15:00,73.5,59.2,30.11,South,190,0.0,4.0,61,0.00,,,0.00,VWS V14.01,2013-10-01 16:15:00,
2013-10-01 12:20:00,73.7,59.0,30.11,SSW,212,0.0,4.0,60,0.00,,,0.00,VWS V14.01,2013-10-01 16:20:00,
2013-10-01 12:23:00,73.7,59.0,30.11,SSW,211,1.0,4.0,60,0.00,,,0.00,VWS V14.01,2013-10-01 16:23:00,
2013-10-01 12:28:00,73.5,58.8,30.11,SSW,198,0.0,4.0,60,0.00,,,0.00,VWS V14.01,2013-10-01 16:28:00,
2013-10-01 12:30:00,77.0,60.1,30.09,SW,236,0.0,4.0,56,0.00,,,0.00,VWS V14.01,2013-10-01 16:30:00,
2013-10-01 12:33:00,73.5,59.2,30.11,SSW,200,0.0,4.0,61,0.00,,,0.00,VWS V14.01,2013-10-01 16:33:00,
2013-10-01 12:38:00,73.9,59.6,30.11,SSW,200,0.0,4.0,61,0.00,,,0.00,VWS V14.01,2013-10-01 16:38:00,
2013-10-01 12:40:00,75.3,58.5,30.11,SW,225,0.0,4.0,56,0.00,,,0.00,VWS V14.01,2013-10-01 16:40:00,
2013-10-01 12:45:00,75.3,58.5,30.11,SW,225,0.0,4.0,56,0.00,,,0.00,VWS V14.01,2013-10-01 16:45:00,
2013-10-01 12:50:00,76.0,59.2,30.10,SW,220,0.0,4.0,56,0.00,,,0.00,VWS V14.01,2013-10-01 16:50:00,
2013-10-01 12:53:00,75.8,58.5,30.10,SW,220,0.0,4.0,55,0.00,,,0.00,VWS V14.01,2013-10-01 16:53:00,
2013-10-01 13:00:00,76.0,59.2,30.10,SSW,207,1.0,4.0,56,0.00,,,0.00,VWS V14.01,2013-10-01 17:00:00,
2013-10-01 13:03:00,76.0,58.7,30.10,SW,221,0.0,4.0,55,0.00,,,0.00,VWS V14.01,2013-10-01 17:03:00,
2013-10-01 13:08:00,76.0,59.2,30.10,South,190,0.0,4.0,56,0.00,,,0.00,VWS V14.01,2013-10-01 17:08:00,
2013-10-01 13:10:00,75.8,60.0,30.10,South,190,0.0,4.0,58,0.00,,,0.00,VWS V14.01,2013-10-01 17:10:00,
2013-10-01 13:13:00,75.8,59.5,30.10,South,190,0.0,4.0,57,0.00,,,0.00,VWS V14.01,2013-10-01 17:13:00,
2013-10-01 13:20:00,77.0,59.6,30.09,SW,236,0.0,4.0,55,0.00,,,0.00,VWS V14.01,2013-10-01 17:20:00,
2013-10-01 13:23:00,76.8,59.9,30.09,SW,236,0.0,4.0,56,0.00,,,0.00,VWS V14.01,2013-10-01 17:23:00,
2013-10-01 13:30:00,77.0,60.1,30.09,SW,236,0.0,4.0,56,0.00,,,0.00,VWS V14.01,2013-10-01 17:30:00,
2013-10-01 13:33:00,77.2,60.3,30.09,SW,236,0.0,4.0,56,0.00,,,0.00,VWS V14.01,2013-10-01 17:33:00,
2013-10-01 13:38:00,76.8,59.9,30.09,SW,236,0.0,4.0,56,0.00,,,0.00,VWS V14.01,2013-10-01 17:38:00,
2013-10-01 13:40:00,75.8,60.0,30.07,SSW,207,0.0,4.0,58,0.00,,,0.00,VWS V14.01,2013-10-01 17:40:00,
2013-10-01 13:43:00,76.0,60.7,30.07,SSW,207,0.0,4.0,59,0.00,,,0.00,VWS V14.01,2013-10-01 17:43:00,
2013-10-01 13:45:00,76.3,59.5,30.09,SSW,207,0.0,4.0,56,0.00,,,0.00,VWS V14.01,2013-10-01 17:45:00,
2013-10-01 13:50:00,76.0,59.7,30.07,SSW,207,0.0,4.0,57,0.00,,,0.00,VWS V14.01,2013-10-01 17:50:00,
2013-10-01 13:53:00,76.1,58.8,30.08,SSW,208,0.0,4.0,55,0.00,,,0.00,VWS V14.01,2013-10-01 17:53:00,
2013-10-01 13:58:00,75.8,59.0,30.08,SW,217,1.0,4.0,56,0.00,,,0.00,VWS V14.01,2013-10-01 17:58:00,
2013-10-01 14:00:00,75.6,60.3,30.06,SW,223,0.0,4.0,59,0.00,,,0.00,VWS V14.01,2013-10-01 18:00:00,
2013-10-01 14:03:00,75.6,58.8,30.08,SSE,166,0.0,4.0,56,0.00,,,0.00,VWS V14.01,2013-10-01 18:03:00,
2013-10-01 14:08:00,76.0,59.2,30.08,South,185,0.0,4.0,56,0.00,,,0.00,VWS V14.01,2013-10-01 18:08:00,
2013-10-01 14:10:00,76.5,59.7,30.08,SSW,192,0.0,4.0,56,0.00,,,0.00,VWS V14.01,2013-10-01 18:10:00,
2013-10-01 14:13:00,76.3,59.5,30.08,SSW,192,0.0,4.0,56,0.00,,,0.00,VWS V14.01,2013-10-01 18:13:00,
2013-10-01 14:20:00,76.1,60.3,30.06,SSW,207,0.0,4.0,58,0.00,,,0.00,VWS V14.01,2013-10-01 18:20:00,
2013-10-01 14:23:00,76.7,59.3,30.08,SW,229,0.0,4.0,55,0.00,,,0.00,VWS V14.01,2013-10-01 18:23:00,
2013-10-01 14:28:00,76.3,59.5,30.08,SW,225,0.0,4.0,56,0.00,,,0.00,VWS V14.01,2013-10-01 18:28:00,
2013-10-01 14:30:00,76.1,59.3,30.07,SSW,207,0.0,4.0,56,0.00,,,0.00,VWS V14.01,2013-10-01 18:30:00,
2013-10-01 14:33:00,76.1,59.3,30.08,SSW,207,0.0,4.0,56,0.00,,,0.00,VWS V14.01,2013-10-01 18:33:00,
2013-10-01 14:34:00,76.1,59.8,30.06,SSW,207,0.0,4.0,57,0.00,,,0.00,VWS V14.01,2013-10-01 18:34:00,
2013-10-01 14:38:00,75.8,59.5,30.07,SSW,207,0.0,4.0,57,0.00,,,0.00,VWS V14.01,2013-10-01 18:38:00,
2013-10-01 14:39:00,76.1,59.8,30.06,SSW,207,0.0,4.0,57,0.00,,,0.00,VWS V14.01,2013-10-01 18:39:00,
2013-10-01 14:40:00,76.1,59.8,30.06,SSW,207,0.0,4.0,57,0.00,,,0.00,VWS V14.01,2013-10-01 18:40:00,
2013-10-01 14:50:00,76.0,59.7,30.07,SSW,207,0.0,4.0,57,0.00,,,0.00,VWS V14.01,2013-10-01 18:50:00,
2013-10-01 14:54:00,76.1,59.8,30.07,SSW,207,0.0,4.0,57,0.00,,,0.00,VWS V14.01,2013-10-01 18:54:00,
2013-10-01 14:59:00,75.8,60.5,30.07,South,182,0.0,4.0,59,0.00,,,0.00,VWS V14.01,2013-10-01 18:59:00,
2013-10-01 15:00:00,76.0,60.2,30.05,SSW,207,0.0,4.0,58,0.00,,,0.00,VWS V14.01,2013-10-01 19:00:00,
2013-10-01 15:04:00,75.6,60.3,30.07,SW,223,0.0,4.0,59,0.00,,,0.00,VWS V14.01,2013-10-01 19:04:00,
2013-10-01 15:09:00,76.0,59.2,30.06,SW,228,0.0,4.0,56,0.00,,,0.00,VWS V14.01,2013-10-01 19:09:00,
2013-10-01 15:10:00,76.1,59.3,30.06,SSW,205,0.0,4.0,56,0.00,,,0.00,VWS V14.01,2013-10-01 19:10:00,
2013-10-01 15:14:00,76.1,59.8,30.06,SSW,205,0.0,4.0,57,0.00,,,0.00,VWS V14.01,2013-10-01 19:14:00,
2013-10-01 15:20:00,76.1,60.3,30.06,SSW,207,0.0,4.0,58,0.00,,,0.00,VWS V14.01,2013-10-01 19:20:00,
2013-10-01 15:24:00,76.1,60.3,30.06,SSW,207,0.0,4.0,58,0.00,,,0.00,VWS V14.01,2013-10-01 19:24:00,
2013-10-01 15:29:00,76.1,60.8,30.06,SSW,207,0.0,4.0,59,0.00,,,0.00,VWS V14.01,2013-10-01 19:29:00,
2013-10-01 15:30:00,76.1,60.8,30.06,SSW,207,0.0,4.0,59,0.00,,,0.00,VWS V14.01,2013-10-01 19:30:00,
2013-10-01 15:34:00,76.1,60.3,30.06,SSW,207,0.0,4.0,58,0.00,,,0.00,VWS V14.01,2013-10-01 19:34:00,
2013-10-01 15:40:00,76.1,59.8,30.06,SSW,207,0.0,4.0,57,0.00,,,0.00,VWS V14.01,2013-10-01 19:40:00,
2013-10-01 15:49:00,76.1,59.8,30.06,SSW,207,0.0,4.0,57,0.00,,,0.00,VWS V14.01,2013-10-01 19:49:00,
2013-10-01 15:50:00,76.0,60.2,30.06,SSW,207,0.0,4.0,58,0.00,,,0.00,VWS V14.01,2013-10-01 19:50:00,
2013-10-01 15:54:00,76.0,59.7,30.06,SSW,207,0.0,4.0,57,0.00,,,0.00,VWS V14.01,2013-10-01 19:54:00,
2013-10-01 15:59:00,75.8,59.5,30.06,SSW,207,0.0,4.0,57,0.00,,,0.00,VWS V14.01,2013-10-01 19:59:00,
2013-10-01 16:00:00,76.0,60.2,30.05,SSW,207,0.0,4.0,58,0.00,,,0.00,VWS V14.01,2013-10-01 20:00:00,
2013-10-01 16:04:00,76.0,60.2,30.05,SSW,207,0.0,4.0,58,0.00,,,0.00,VWS V14.01,2013-10-01 20:04:00,
2013-10-01 16:09:00,76.3,60.0,30.05,SW,227,0.0,4.0,57,0.00,,,0.00,VWS V14.01,2013-10-01 20:09:00,
2013-10-01 16:10:00,76.7,59.8,30.05,SW,222,0.0,4.0,56,0.00,,,0.00,VWS V14.01,2013-10-01 20:10:00,
2013-10-01 16:14:00,76.5,59.7,30.05,SW,222,0.0,4.0,56,0.00,,,0.00,VWS V14.01,2013-10-01 20:14:00,
2013-10-01 16:19:00,76.7,59.8,30.05,SW,222,0.0,4.0,56,0.00,,,0.00,VWS V14.01,2013-10-01 20:19:00,
2013-10-01 16:20:00,76.7,59.8,30.05,SW,225,0.0,4.0,56,0.00,,,0.00,VWS V14.01,2013-10-01 20:20:00,
2013-10-01 16:24:00,76.7,60.3,30.05,SW,225,0.0,4.0,57,0.00,,,0.00,VWS V14.01,2013-10-01 20:24:00,
2013-10-01 16:29:00,76.5,60.2,30.05,SW,225,0.0,4.0,57,0.00,,,0.00,VWS V14.01,2013-10-01 20:29:00,
2013-10-01 16:30:00,76.5,60.2,30.05,SW,225,0.0,4.0,57,0.00,,,0.00,VWS V14.01,2013-10-01 20:30:00,
2013-10-01 16:34:00,76.5,59.7,30.05,SW,225,0.0,4.0,56,0.00,,,0.00,VWS V14.01,2013-10-01 20:34:00,
2013-10-01 16:39:00,76.7,59.8,30.05,SW,225,0.0,4.0,56,0.00,,,0.00,VWS V14.01,2013-10-01 20:39:00,
2013-10-01 16:40:00,77.2,59.8,30.05,SSW,198,1.0,4.0,55,0.00,,,0.00,VWS V14.01,2013-10-01 20:40:00,
2013-10-01 16:44:00,77.2,59.8,30.05,SSW,198,0.0,4.0,55,0.00,,,0.00,VWS V14.01,2013-10-01 20:44:00,
2013-10-01 16:49:00,77.6,60.2,30.04,SSW,198,0.0,4.0,55,0.00,,,0.00,VWS V14.01,2013-10-01 20:49:00,
2013-10-01 16:50:00,77.6,59.7,30.04,SSW,200,0.0,4.0,54,0.00,,,0.00,VWS V14.01,2013-10-01 20:50:00,
2013-10-01 16:54:00,77.6,59.7,30.04,SSW,200,0.0,4.0,54,0.00,,,0.00,VWS V14.01,2013-10-01 20:54:00,
2013-10-01 16:59:00,77.6,59.1,30.04,South,177,0.0,4.0,53,0.00,,,0.00,VWS V14.01,2013-10-01 20:59:00,
2013-10-01 17:00:00,77.6,59.7,30.04,SW,223,0.0,4.0,54,0.00,,,0.00,VWS V14.01,2013-10-01 21:00:00,
2013-10-01 17:04:00,77.6,59.7,30.04,SW,223,0.0,4.0,54,0.00,,,0.00,VWS V14.01,2013-10-01 21:04:00,
2013-10-01 17:09:00,77.6,59.7,30.04,SW,223,0.0,4.0,54,0.00,,,0.00,VWS V14.01,2013-10-01 21:09:00,
2013-10-01 17:10:00,77.2,59.3,30.04,SW,223,0.0,4.0,54,0.00,,,0.00,VWS V14.01,2013-10-01 21:10:00,
2013-10-01 17:14:00,77.2,59.3,30.04,SW,223,0.0,4.0,54,0.00,,,0.00,VWS V14.01,2013-10-01 21:14:00,
2013-10-01 17:19:00,77.0,59.6,30.04,SW,223,0.0,4.0,55,0.00,,,0.00,VWS V14.01,2013-10-01 21:19:00,
2013-10-01 17:20:00,76.8,59.9,30.04,SW,223,0.0,4.0,56,0.00,,,0.00,VWS V14.01,2013-10-01 21:20:00,
2013-10-01 17:25:00,76.8,59.9,30.04,SW,223,0.0,4.0,56,0.00,,,0.00,VWS V14.01,2013-10-01 21:25:00,
2013-10-01 17:30:00,77.0,60.1,30.04,SW,223,0.0,4.0,56,0.00,,,0.00,VWS V14.01,2013-10-01 21:30:00,
2013-10-01 17:35:00,77.0,59.6,30.04,SW,223,0.0,4.0,55,0.00,,,0.00,VWS V14.01,2013-10-01 21:35:00,
2013-10-01 17:40:00,77.0,60.1,30.04,SW,223,0.0,4.0,56,0.00,,,0.00,VWS V14.01,2013-10-01 21:40:00,
2013-10-01 17:45:00,76.8,59.9,30.04,SW,223,0.0,4.0,56,0.00,,,0.00,VWS V14.01,2013-10-01 21:45:00,
2013-10-01 17:50:00,77.0,59.6,30.04,SW,223,0.0,4.0,55,0.00,,,0.00,VWS V14.01,2013-10-01 21:50:00,
2013-10-01 17:55:00,77.0,59.1,30.04,SW,223,0.0,4.0,54,0.00,,,0.00,VWS V14.01,2013-10-01 21:55:00,
2013-10-01 18:00:00,77.0,59.6,30.04,SW,223,0.0,4.0,55,0.00,,,0.00,VWS V14.01,2013-10-01 22:00:00,
2013-10-01 18:05:00,77.0,61.1,30.04,SW,223,0.0,4.0,58,0.00,,,0.00,VWS V14.01,2013-10-01 22:05:00,
2013-10-01 18:10:00,76.7,60.3,30.04,SW,223,0.0,4.0,57,0.00,,,0.00,VWS V14.01,2013-10-01 22:10:00,
2013-10-01 18:15:00,76.7,59.3,30.04,SW,223,0.0,4.0,55,0.00,,,0.00,VWS V14.01,2013-10-01 22:15:00,
2013-10-01 18:20:00,76.7,59.8,30.04,South,180,0.0,4.0,56,0.00,,,0.00,VWS V14.01,2013-10-01 22:20:00,
2013-10-01 18:25:00,76.7,59.8,30.04,South,180,0.0,4.0,56,0.00,,,0.00,VWS V14.01,2013-10-01 22:25:00,
2013-10-01 18:30:00,76.5,60.6,30.04,South,180,0.0,4.0,58,0.00,,,0.00,VWS V14.01,2013-10-01 22:30:00,
2013-10-01 18:35:00,76.5,60.6,30.04,South,180,0.0,4.0,58,0.00,,,0.00,VWS V14.01,2013-10-01 22:35:00,
2013-10-01 18:40:00,76.3,61.4,30.04,South,180,0.0,4.0,60,0.00,,,0.00,VWS V14.01,2013-10-01 22:40:00,
2013-10-01 18:45:00,76.0,60.7,30.04,South,180,0.0,4.0,59,0.00,,,0.00,VWS V14.01,2013-10-01 22:45:00,
2013-10-01 18:50:00,75.8,60.0,30.04,South,180,0.0,4.0,58,0.00,,,0.00,VWS V14.01,2013-10-01 22:50:00,
2013-10-01 18:55:00,75.6,60.8,30.04,South,180,0.0,4.0,60,0.00,,,0.00,VWS V14.01,2013-10-01 22:55:00,
2013-10-01 19:00:00,75.3,60.0,30.04,South,180,0.0,4.0,59,0.00,,,0.00,VWS V14.01,2013-10-01 23:00:00,
2013-10-01 19:05:00,75.1,60.3,30.04,South,180,0.0,4.0,60,0.00,,,0.00,VWS V14.01,2013-10-01 23:05:00,
2013-10-01 19:10:00,74.7,60.4,30.04,South,180,0.0,4.0,61,0.00,,,0.00,VWS V14.01,2013-10-01 23:10:00,
2013-10-01 19:15:00,74.6,60.3,30.04,South,180,0.0,4.0,61,0.00,,,0.00,VWS V14.01,2013-10-01 23:15:00,
2013-10-01 19:20:00,70.3,60.1,30.06,South,180,0.0,4.0,70,0.00,,,0.00,VWS V14.01,2013-10-01 23:20:00,
2013-10-01 19:25:00,69.9,60.1,30.06,South,180,0.0,4.0,71,0.00,,,0.00,VWS V14.01,2013-10-01 23:25:00,
2013-10-01 19:30:00,69.9,60.5,30.06,South,180,0.0,4.0,72,0.00,,,0.00,VWS V14.01,2013-10-01 23:30:00,
2013-10-01 19:35:00,73.3,60.4,30.05,South,180,0.0,4.0,64,0.00,,,0.00,VWS V14.01,2013-10-01 23:35:00,
2013-10-01 19:36:00,69.6,60.2,30.06,South,180,0.0,4.0,72,0.00,,,0.00,VWS V14.01,2013-10-01 23:36:00,
2013-10-01 19:40:00,73.0,60.1,30.05,South,180,0.0,4.0,64,0.00,,,0.00,VWS V14.01,2013-10-01 23:40:00,
2013-10-01 19:46:00,69.1,60.5,30.06,South,180,0.0,4.0,74,0.00,,,0.00,VWS V14.01,2013-10-01 23:46:00,
2013-10-01 19:50:00,68.9,60.3,30.06,South,180,0.0,4.0,74,0.00,,,0.00,VWS V14.01,2013-10-01 23:50:00,
2013-10-01 19:51:00,68.9,60.3,30.06,South,180,0.0,4.0,74,0.00,,,0.00,VWS V14.01,2013-10-01 23:51:00,
2013-10-01 19:56:00,72.0,60.5,30.05,South,180,0.0,4.0,67,0.00,,,0.00,VWS V14.01,2013-10-01 23:56:00,
2013-10-01 20:00:00,71.5,60.4,30.06,South,180,0.0,4.0,68,0.00,,,0.00,VWS V14.01,2013-10-02 00:00:00,
2013-10-01 20:01:00,71.8,60.3,30.05,South,180,0.0,4.0,67,0.00,,,0.00,VWS V14.01,2013-10-02 00:01:00,
2013-10-01 20:06:00,71.5,60.4,30.06,South,180,0.0,4.0,68,0.00,,,0.00,VWS V14.01,2013-10-02 00:06:00,
2013-10-01 20:10:00,68.1,60.3,30.07,South,180,0.0,4.0,76,0.00,,,0.00,VWS V14.01,2013-10-02 00:10:00,
2013-10-01 20:11:00,71.3,60.2,30.06,South,180,0.0,4.0,68,0.00,,,0.00,VWS V14.01,2013-10-02 00:11:00,
2013-10-01 20:20:00,67.8,60.3,30.07,South,180,0.0,4.0,77,0.00,,,0.00,VWS V14.01,2013-10-02 00:20:00,
2013-10-01 20:21:00,70.6,60.3,30.06,South,180,0.0,4.0,70,0.00,,,0.00,VWS V14.01,2013-10-02 00:21:00,
2013-10-01 20:30:00,69.9,60.5,30.06,South,180,0.0,4.0,72,0.00,,,0.00,VWS V14.01,2013-10-02 00:30:00,
2013-10-01 20:31:00,67.4,60.3,30.07,South,180,0.0,4.0,78,0.00,,,0.00,VWS V14.01,2013-10-02 00:31:00,
2013-10-01 20:36:00,69.8,60.4,30.06,South,180,0.0,4.0,72,0.00,,,0.00,VWS V14.01,2013-10-02 00:36:00,
2013-10-01 20:40:00,67.1,60.4,30.07,South,180,0.0,4.0,79,0.00,,,0.00,VWS V14.01,2013-10-02 00:40:00,
2013-10-01 20:41:00,67.1,60.4,30.07,South,180,0.0,4.0,79,0.00,,,0.00,VWS V14.01,2013-10-02 00:41:00,
2013-10-01 20:45:00,69.4,60.0,30.06,South,180,0.0,4.0,72,0.00,,,0.00,VWS V14.01,2013-10-02 00:45:00,
2013-10-01 20:46:00,66.9,60.2,30.07,South,180,0.0,4.0,79,0.00,,,0.00,VWS V14.01,2013-10-02 00:46:00,
2013-10-01 20:50:00,68.9,60.3,30.06,South,180,0.0,4.0,74,0.00,,,0.00,VWS V14.01,2013-10-02 00:50:00,
2013-10-01 21:00:00,68.6,60.4,30.07,South,180,0.0,4.0,75,0.00,,,0.00,VWS V14.01,2013-10-02 01:00:00,
2013-10-01 21:05:00,68.6,60.4,30.07,South,180,0.0,4.0,75,0.00,,,0.00,VWS V14.01,2013-10-02 01:05:00,
2013-10-01 21:06:00,66.3,60.3,30.07,South,180,0.0,4.0,81,0.00,,,0.00,VWS V14.01,2013-10-02 01:06:00,
2013-10-01 21:10:00,66.3,60.3,30.07,South,180,0.0,4.0,81,0.00,,,0.00,VWS V14.01,2013-10-02 01:10:00,
2013-10-01 21:16:00,66.1,60.5,30.07,South,180,0.0,4.0,82,0.00,,,0.00,VWS V14.01,2013-10-02 01:16:00,
2013-10-01 21:20:00,67.8,60.3,30.07,South,180,0.0,4.0,77,0.00,,,0.00,VWS V14.01,2013-10-02 01:20:00,
2013-10-01 21:21:00,67.9,60.4,30.07,South,180,0.0,4.0,77,0.00,,,0.00,VWS V14.01,2013-10-02 01:21:00,
2013-10-01 21:26:00,67.8,60.3,30.07,South,180,0.0,4.0,77,0.00,,,0.00,VWS V14.01,2013-10-02 01:26:00,
2013-10-01 21:30:00,65.8,60.2,30.07,South,180,0.0,4.0,82,0.00,,,0.00,VWS V14.01,2013-10-02 01:30:00,
2013-10-01 21:31:00,67.4,60.0,30.07,South,180,0.0,4.0,77,0.00,,,0.00,VWS V14.01,2013-10-02 01:31:00,
2013-10-01 21:36:00,65.8,60.5,30.07,South,180,0.0,4.0,83,0.00,,,0.00,VWS V14.01,2013-10-02 01:36:00,
2013-10-01 21:40:00,65.6,60.3,30.07,South,180,0.0,4.0,83,0.00,,,0.00,VWS V14.01,2013-10-02 01:40:00,
2013-10-01 21:50:00,66.8,60.4,30.07,South,180,0.0,4.0,80,0.00,,,0.00,VWS V14.01,2013-10-02 01:50:00,
2013-10-01 21:55:00,66.8,60.4,30.07,South,180,0.0,4.0,80,0.00,,,0.00,VWS V14.01,2013-10-02 01:55:00,
2013-10-01 22:00:00,65.3,60.3,30.08,South,180,0.0,4.0,84,0.00,,,0.00,VWS V14.01,2013-10-02 02:00:00,
2013-10-01 22:01:00,66.6,60.2,30.07,South,180,0.0,4.0,80,0.00,,,0.00,VWS V14.01,2013-10-02 02:01:00,
2013-10-01 22:06:00,66.4,60.4,30.07,South,180,0.0,4.0,81,0.00,,,0.00,VWS V14.01,2013-10-02 02:06:00,
2013-10-01 22:10:00,65.2,60.2,30.08,South,180,0.0,4.0,84,0.00,,,0.00,VWS V14.01,2013-10-02 02:10:00,
2013-10-01 22:16:00,66.3,60.7,30.07,South,180,0.0,4.0,82,0.00,,,0.00,VWS V14.01,2013-10-02 02:16:00,
2013-10-01 22:20:00,66.0,60.3,30.07,South,180,0.0,4.0,82,0.00,,,0.00,VWS V14.01,2013-10-02 02:20:00,
2013-10-01 22:21:00,65.0,60.4,30.08,South,180,0.0,4.0,85,0.00,,,0.00,VWS V14.01,2013-10-02 02:21:00,
2013-10-01 22:25:00,66.0,60.3,30.07,South,180,0.0,4.0,82,0.00,,,0.00,VWS V14.01,2013-10-02 02:25:00,
2013-10-01 22:26:00,64.8,60.2,30.08,South,180,0.0,4.0,85,0.00,,,0.00,VWS V14.01,2013-10-02 02:26:00,
2013-10-01 22:30:00,65.8,60.2,30.07,South,180,0.0,4.0,82,0.00,,,0.00,VWS V14.01,2013-10-02 02:30:00,
2013-10-01 22:31:00,66.0,60.3,30.07,South,180,0.0,4.0,82,0.00,,,0.00,VWS V14.01,2013-10-02 02:31:00,
2013-10-01 22:40:00,65.6,60.3,30.07,South,180,0.0,4.0,83,0.00,,,0.00,VWS V14.01,2013-10-02 02:40:00,
2013-10-01 22:46:00,65.6,60.3,30.07,South,180,0.0,4.0,83,0.00,,,0.00,VWS V14.01,2013-10-02 02:46:00,
2013-10-01 22:50:00,65.5,60.2,30.08,South,180,0.0,4.0,83,0.00,,,0.00,VWS V14.01,2013-10-02 02:50:00,
2013-10-01 22:51:00,65.6,60.3,30.08,South,180,0.0,4.0,83,0.00,,,0.00,VWS V14.01,2013-10-02 02:51:00,
2013-10-01 22:56:00,65.5,60.2,30.08,South,180,0.0,4.0,83,0.00,,,0.00,VWS V14.01,2013-10-02 02:56:00,
2013-10-01 23:00:00,64.8,60.5,30.08,South,180,0.0,4.0,86,0.00,,,0.00,VWS V14.01,2013-10-02 03:00:00,
2013-10-01 23:01:00,65.3,60.0,30.08,South,180,0.0,4.0,83,0.00,,,0.00,VWS V14.01,2013-10-02 03:01:00,
2013-10-01 23:06:00,65.3,60.3,30.08,South,180,0.0,4.0,84,0.00,,,0.00,VWS V14.01,2013-10-02 03:06:00,
2013-10-01 23:10:00,64.8,60.5,30.08,South,180,0.0,4.0,86,0.00,,,0.00,VWS V14.01,2013-10-02 03:10:00,
2013-10-01 23:11:00,65.2,60.2,30.08,South,180,0.0,4.0,84,0.00,,,0.00,VWS V14.01,2013-10-02 03:11:00,
2013-10-01 23:16:00,65.2,60.2,30.08,South,180,0.0,4.0,84,0.00,,,0.00,VWS V14.01,2013-10-02 03:16:00,
2013-10-01 23:20:00,64.7,60.4,30.08,South,180,0.0,4.0,86,0.00,,,0.00,VWS V14.01,2013-10-02 03:20:00,
2013-10-01 23:21:00,64.7,60.4,30.08,South,180,0.0,4.0,86,0.00,,,0.00,VWS V14.01,2013-10-02 03:21:00,
2013-10-01 23:25:00,65.0,60.4,30.08,South,180,0.0,4.0,85,0.00,,,0.00,VWS V14.01,2013-10-02 03:25:00,
2013-10-01 23:26:00,64.5,60.2,30.08,South,180,0.0,4.0,86,0.00,,,0.00,VWS V14.01,2013-10-02 03:26:00,
2013-10-01 23:30:00,64.5,60.2,30.08,South,180,0.0,4.0,86,0.00,,,0.00,VWS V14.01,2013-10-02 03:30:00,
2013-10-01 23:31:00,64.5,60.2,30.08,South,180,0.0,4.0,86,0.00,,,0.00,VWS V14.01,2013-10-02 03:31:00,
2013-10-01 23:35:00,64.8,60.5,30.08,South,180,0.0,4.0,86,0.00,,,0.00,VWS V14.01,2013-10-02 03:35:00,
2013-10-01 23:36:00,64.3,60.0,30.08,South,180,0.0,4.0,86,0.00,,,0.00,VWS V14.01,2013-10-02 03:36:00,
2013-10-01 23:40:00,64.3,60.3,30.08,South,180,0.0,4.0,87,0.00,,,0.00,VWS V14.01,2013-10-02 03:40:00,
2013-10-01 23:41:00,64.8,60.5,30.08,South,180,0.0,4.0,86,0.00,,,0.00,VWS V14.01,2013-10-02 03:41:00,
2013-10-01 23:46:00,64.8,60.5,30.08,South,180,0.0,4.0,86,0.00,,,0.00,VWS V14.01,2013-10-02 03:46:00,
2013-10-01 23:50:00,64.0,60.1,30.08,South,180,0.0,4.0,87,0.00,,,0.00,VWS V14.01,2013-10-02 03:50:00,
2013-10-01 23:51:00,64.8,60.5,30.08,South,180,0.0,4.0,86,0.00,,,0.00,VWS V14.01,2013-10-02 03:51:00,
2013-10-01 23:56:00,64.8,60.5,30.08,South,180,0.0,4.0,86,0.00,,,0.00,VWS V14.01,2013-10-02 03:56:00,